Rickenbacker, OH

5:09 AM EDT on July 25, 2017 (GMT -0400)
Rickenbacker International

Weather History for KLCK - August, 2014

Change the Weather History Date:

Friday, August 15, 2014

  Actual Average Record
Temperature  
Mean Temperature 63 °F -  
Max Temperature 77 °F 82 °F 90 °F (2010)
Min Temperature 49 °F 62 °F 48 °F (2013)
Degree Days  
Heating Degree Days 2    
Growing Degree Days 13 (Base 50)    
Moisture  
Dew Point 43 °F    
Average Humidity 52    
Maximum Humidity 84    
Minimum Humidity 21    
Precipitation  
Precipitation 0.00 in - - ()
Sea Level Pressure  
Sea Level Pressure 30.04 in    
Wind  
Wind Speed 2 mph (West)    
Max Wind Speed 9 mph    
Max Gust Speed 9 mph    
Visibility 10 miles    
Events      
Averages and records for this station are not official NWS values.
T = Trace of Precipitation, MM = Missing Value Source: NWS Daily Summary

Daily Weather History Graph

Daily Weather History Graph

Search for Another Location

Airport or City:

Trip Planner

Search our weather history database for the weather conditions in past years. The results will help you decide how hot, cold, wet, or windy it might be!

Date:

Astronomy

Aug. 15, 2014 Rise Set
Actual Time 6:43 AM EDT 8:28 PM EDT
Civil Twilight 6:14 AM EDT 8:56 PM EDT
Nautical Twilight 5:39 AM EDT 9:31 PM EDT
Astronomical Twilight 5:02 AM EDT 10:09 PM EDT
Moon 11:30 PM EDT (8/15) 12:24 PM EDT (8/15)
Length of Visible Light 14h 42m
Length of Day
13h 44m
Waning Gibbous, 69% of the Moon is Illuminated
Aug 15
Waning Gibbous
Aug 17
Last Quarter
Aug 25
New
Sep 2
First Quarter
Sep 8
Full

Hourly Weather History & Observations

Time (EDT) Temp. Dew Point Humidity Pressure Visibility Wind Dir Wind Speed Gust Speed Precip Events Conditions
12:15 AM 57.7 °F 49.6 °F 74% 30.02 in 10.0 mi Calm Calm - N/A   Clear
12:35 AM 57.7 °F 49.3 °F 73% 30.03 in 10.0 mi Calm Calm - N/A   Clear
12:55 AM 57.7 °F 49.1 °F 73% 30.03 in 10.0 mi Calm Calm - N/A   Clear
1:15 AM 56.8 °F 48.9 °F 75% 30.03 in 10.0 mi Calm Calm - N/A   Clear
1:35 AM 55.6 °F 48.7 °F 78% 30.03 in 10.0 mi Calm Calm - N/A   Clear
1:55 AM 55.0 °F 48.4 °F 78% 30.02 in 10.0 mi SSE 4.6 mph - N/A   Clear
2:15 AM 53.1 °F 47.7 °F 82% 30.02 in 10.0 mi South 3.5 mph - N/A   Clear
2:35 AM 54.0 °F 48.4 °F 81% 30.02 in 10.0 mi Calm Calm - N/A   Clear
2:55 AM 54.5 °F 48.6 °F 80% 30.02 in 10.0 mi Calm Calm - N/A   Clear
3:15 AM 53.8 °F 48.0 °F 81% 30.02 in 10.0 mi Calm Calm - N/A   Clear
3:35 AM 53.2 °F 47.7 °F 81% 30.02 in 10.0 mi Calm Calm - N/A   Clear
3:55 AM 52.9 °F 47.8 °F 83% 30.02 in 10.0 mi Calm Calm - N/A   Clear
4:15 AM 51.8 °F 46.9 °F 83% 30.02 in 10.0 mi Calm Calm - N/A   Clear
4:35 AM 51.3 °F 46.2 °F 83% 30.03 in 10.0 mi Calm Calm - N/A   Clear
4:55 AM 50.4 °F 45.5 °F 83% 30.03 in 10.0 mi Calm Calm - N/A   Clear
5:15 AM 50.7 °F 46.0 °F 84% 30.03 in 10.0 mi Calm Calm - N/A   Clear
5:35 AM 52.0 °F 46.9 °F 83% 30.03 in 10.0 mi Calm Calm - N/A   Clear
5:55 AM 52.7 °F 46.8 °F 80% 30.04 in 10.0 mi Calm Calm - N/A   Clear
6:35 AM 49.3 °F 44.2 °F 83% 30.05 in 10.0 mi Calm Calm - N/A   Clear
6:55 AM 49.1 °F 44.6 °F 84% 30.06 in 10.0 mi Calm Calm - N/A   Clear
7:15 AM 49.6 °F 44.8 °F 83% 30.06 in 10.0 mi Calm Calm - N/A   Clear
7:35 AM 50.2 °F 45.5 °F 84% 30.06 in 3.0 mi Calm Calm - N/A   Haze
7:55 AM 52.0 °F 47.3 °F 84% 30.07 in 10.0 mi Calm Calm - N/A   Clear
8:15 AM 54.3 °F 48.7 °F 81% 30.07 in 10.0 mi Calm Calm - N/A   Clear
8:35 AM 56.1 °F 50.0 °F 80% 30.07 in 10.0 mi Calm Calm - N/A   Clear
8:55 AM 58.3 °F 50.9 °F 76% 30.06 in 10.0 mi Calm Calm - N/A   Clear
9:15 AM 60.1 °F 51.3 °F 73% 30.07 in 10.0 mi Calm Calm - N/A   Clear
9:35 AM 61.7 °F 50.9 °F 68% 30.07 in 10.0 mi Calm Calm - N/A   Clear
9:55 AM 64.0 °F 50.4 °F 61% 30.06 in 10.0 mi Calm Calm - N/A   Clear
10:15 AM 65.5 °F 49.1 °F 55% 30.07 in 10.0 mi Calm Calm - N/A   Clear
10:35 AM 67.3 °F 47.7 °F 49% 30.07 in 10.0 mi Calm Calm - N/A   Clear
10:55 AM 68.4 °F 47.5 °F 47% 30.07 in 10.0 mi Calm Calm - N/A   Clear
11:15 AM 69.8 °F 46.0 °F 43% 30.08 in 10.0 mi WSW 5.8 mph - N/A   Clear
11:35 AM 71.1 °F 43.5 °F 37% 30.07 in 10.0 mi West 4.6 mph - N/A   Clear
11:55 AM 71.8 °F 43.9 °F 37% 30.07 in 10.0 mi West 8.1 mph - N/A   Clear
12:15 PM 73.0 °F 41.0 °F 31% 30.07 in 10.0 mi West 8.1 mph - N/A   Clear
12:35 PM 73.2 °F 38.1 °F 28% 30.07 in 10.0 mi WSW 6.9 mph - N/A   Clear
12:55 PM 73.8 °F 38.3 °F 28% 30.06 in 10.0 mi SW 4.6 mph - N/A   Clear
1:15 PM 73.9 °F 39.6 °F 29% 30.06 in 10.0 mi West 5.8 mph - N/A   Clear
1:35 PM 74.1 °F 38.3 °F 27% 30.05 in 10.0 mi WNW 8.1 mph - N/A   Clear
1:55 PM 74.7 °F 36.7 °F 25% 30.05 in 10.0 mi Calm Calm - N/A   Clear
2:15 PM 75.0 °F 35.8 °F 24% 30.05 in 10.0 mi NW 3.5 mph - N/A   Clear
2:35 PM 75.2 °F 35.2 °F 23% 30.04 in 10.0 mi West 8.1 mph - N/A   Clear
2:55 PM 75.6 °F 35.1 °F 23% 30.04 in 10.0 mi NNW 3.5 mph - N/A   Clear
3:15 PM 75.7 °F 35.8 °F 23% 30.03 in 10.0 mi West 9.2 mph - N/A   Clear
3:35 PM 76.5 °F 36.1 °F 23% 30.03 in 10.0 mi WSW 3.5 mph - N/A   Clear
3:55 PM 76.6 °F 35.1 °F 22% 30.03 in 10.0 mi Calm Calm - N/A   Clear
4:15 PM 76.5 °F 33.3 °F 21% 30.03 in 10.0 mi West 3.5 mph - N/A   Clear
4:35 PM 77.0 °F 34.0 °F 21% 30.02 in 10.0 mi NW 6.9 mph - N/A   Clear
4:55 PM 77.2 °F 34.9 °F 22% 30.02 in 10.0 mi NW 9.2 mph - N/A   Clear
5:15 PM 77.2 °F 35.8 °F 22% 30.02 in 10.0 mi WNW 3.5 mph - N/A   Clear
5:35 PM 77.4 °F 36.5 °F 23% 30.02 in 10.0 mi WNW 8.1 mph - N/A   Clear
5:55 PM 77.0 °F 36.7 °F 23% 30.02 in 10.0 mi WSW 5.8 mph - N/A   Clear
6:15 PM 76.6 °F 36.5 °F 23% 30.01 in 10.0 mi NW 5.8 mph 9.2 mph N/A   Clear
6:35 PM 76.3 °F 36.3 °F 24% 30.01 in 10.0 mi West 6.9 mph - N/A   Clear
6:55 PM 75.4 °F 35.1 °F 23% 30.01 in 10.0 mi West 6.9 mph - N/A   Clear
7:15 PM 74.3 °F 36.1 °F 25% 30.01 in 10.0 mi West 5.8 mph - N/A   Clear
7:35 PM 73.8 °F 36.5 °F 26% 30.01 in 10.0 mi NW 5.8 mph - N/A   Clear
7:55 PM 72.7 °F 37.9 °F 28% 30.01 in 10.0 mi WNW 4.6 mph - N/A   Clear
8:15 PM 71.4 °F 39.9 °F 32% 30.00 in 10.0 mi NW 4.6 mph - N/A   Clear
8:35 PM 70.2 °F 41.2 °F 35% 30.00 in 10.0 mi NW 3.5 mph - N/A   Clear
8:55 PM 70.0 °F 39.4 °F 33% 30.00 in 10.0 mi NW 3.5 mph - N/A   Clear
9:15 PM 69.1 °F 41.2 °F 36% 30.01 in 10.0 mi Calm Calm - N/A   Clear
9:35 PM 66.0 °F 43.7 °F 44% 30.01 in 10.0 mi Calm Calm - N/A   Clear
10:15 PM 62.8 °F 44.8 °F 52% 30.02 in 10.0 mi Calm Calm - N/A   Clear
10:35 PM 62.2 °F 44.4 °F 52% 30.03 in 10.0 mi Calm Calm - N/A   Clear
10:55 PM 62.4 °F 44.2 °F 51% 30.03 in 10.0 mi Calm Calm - N/A   Clear
11:15 PM 61.7 °F 44.6 °F 53% 30.03 in 10.0 mi Calm Calm - N/A   Clear
11:35 PM 60.6 °F 45.0 °F 56% 30.04 in 10.0 mi Calm Calm - N/A   Clear